Hourly Data Report for August 17, 2022

TORONTO CITY
ONTARIO
Current Station Operator: ECCC - MSC

43°40'00.000" N
79°24'00.000" W
112.50 m
6158355
71508
XTO

Download Data

Hourly Data (August 2022)
Hourly Data Report for August 17, 2022
TIME
LST
Temp Definition
°C
Dew Point Definition
°C
Rel Hum Definition
%
Precip. Amount Definition
mm

Wind Dir Definition
10's deg

Wind Spd Definition
km/h
Visibility Definition
km
Stn Press Definition
kPa
Hmdx Definition


Wind Chill Definition


Weather Definition


00:00 21.1 13.2 61 0.0       100.48     LegendNANA
01:00 20.9 13.1 61 0.0       100.47     LegendNANA
02:00 20.4 13.4 64 0.0       100.48     LegendNANA
03:00 20.3 13.3 64 0.0       100.49     LegendNANA
04:00 19.7 13.4 67 0.0       100.50     LegendNANA
05:00 18.9 14.0 73 0.0       100.53     LegendNANA
06:00 19.3 14.5 73 0.0       100.54     LegendNANA
07:00 20.4 14.3 68 0.0       100.56     LegendNANA
08:00 21.5 14.7 65 0.0       100.57 25   LegendNANA
09:00 24.0 15.3 58 0.0       100.55 28   LegendNANA
10:00 25.0 15.8 57 0.0       100.55 29   LegendNANA
11:00 25.6 16.7 58 0.0       100.52 31   LegendNANA
12:00 26.2 16.6 56 0.0       100.47 31   LegendNANA
13:00 26.2 16.3 55 0.0       100.48 31   LegendNANA
14:00 26.0 10.0 36 0.0       100.41 27   LegendNANA
15:00 25.9 13.2 45 0.0       100.35 29   LegendNANA
16:00 26.8 11.0 37 0.0       100.29 29   LegendNANA
17:00 26.0 15.5 53 0.0       100.34 30   LegendNANA
18:00 24.6 15.4 56 0.0       100.32 29   LegendNANA
19:00 23.3 16.0 63 0.0       100.31 28   LegendNANA
20:00 22.3 15.8 67 0.0       100.29 27   LegendNANA
21:00 22.5 15.6 65 0.0       100.28 27   LegendNANA
22:00 21.0 15.4 70 0.0       100.23 25   LegendNANA
23:00 20.4 14.9 71 0.0       100.22     LegendNANA

Notes on Data Quality.

Legend

  • E = Estimated
  • M = Missing
  • NA = Not Available*
  • [empty] = Indicates an unobserved value
Date modified: